Regional Weather Roundup
Issued by NWS

Home | Current Version | Previous Version | Graphics & Text | Print | Product List | Glossary On
Versions: 1 2 3 4 5 6 7 8 9 10 11 12 13 14 15 16 17 18 19 20 21 22 23 24 25 26 27 28 29 30 31 32 33 34 35 36 37 38 39 40 41 42 43 44 45 46 47 48 49 50
000
ASUS43 KLMK 300710
RWRKY
KENTUCKY REGIONAL WEATHER ROUNDUP
NATIONAL WEATHER SERVICE LOUISVILLE KY
300 AM EDT FRI SEP 30 2016

NOTE "FAIR" INDICATES FEW OR NO CLOUDS BELOW 12,000 FEET
WITH NO SIGNIFICANT WEATHER AND/OR OBSTRUCTIONS TO VISIBILITY.

KYZ001>023-026-027-061>063-070>075-300800-
WESTERN AND SOUTH CENTRAL KENTUCKY

CITY           SKY/WX    TMP DP  RH WIND       PRES   REMARKS
PADUCAH        CLOUDY    59  56  89 NW5       30.08F FOG
HENDERSON      MOCLDY    57  52  82 NW3       30.05S
OWENSBORO      NOT AVBL
HOPKINSVILLE   CLOUDY    55  55 100 W6        30.06F
BOWLING GREEN  PTCLDY    52  50  93 CALM      30.06F FOG
GLASGOW        FOG      N/A N/A N/A CALM      30.05F VSB 1/2
$$

KYZ024-025-028>034-038-045-046-053-300800-
NORTH CENTRAL KENTUCKY

CITY           SKY/WX    TMP DP  RH WIND       PRES   REMARKS
LOUISVILLE/SDF HVY RAIN  57  55  93 CALM      30.04F FOG
LOUISVILLE/LOU RAIN      57  55  93 SW6       30.04F FOG
FORT KNOX      LGT RAIN  52  52 100 CALM      30.03F
$$

KYZ035>037-039>044-047>052-055>060-089>105-300800-
NORTHEAST KENTUCKY

CITY           SKY/WX    TMP DP  RH WIND       PRES   REMARKS
LEXINGTON      CLOUDY    55  53  93 SW3       30.04F
COVINGTON      CLOUDY    58  57  97 S5        30.02F
FRANKFORT      CLOUDY    56  53  90 CALM      30.03F
$$

KYZ054-064>069-076>088-106>120-300800-
SOUTHEAST KENTUCKY

CITY           SKY/WX    TMP DP  RH WIND       PRES   REMARKS
JACKSON        FOG       53  53 100 CALM      30.04F VSB 1/4
LONDON         CLOUDY    48  46  93 CALM      30.05S FOG
SOMERSET       MOCLDY    48  48 100 CALM      30.07R FOG
MIDDLESBORO    CLOUDY    52  51  97 CALM      30.06S
MONTICELLO     PTSUNNY   48  48 100 W10       30.07S FOG
$$




USA.gov is the U.S. government's official web portal to all federal, state and local government web resources and services.